Location: Unspecified
(0.0000°N, 0.0000°E)
Time: 06:31:57
(UTC+00:00)

Courier 1B - Pass Details

Date: 30 September 2023
Orbit: 962 x 1208 km, 28.3° (Epoch: 06 December)

Event Time Altitude Azimuth Distance (km) Brightness Sun altitude
Rises 20:35:16 0° 287° (WNW) 4,010 11.5 -41.3°
Reaches altitude 10° 20:38:16 10° 281° (WNW) 3,016 10.7 -42.0°
Enters shadow 20:42:34 33° 259° (WSW) 1,780 9.1 -43.1°
Maximum altitude 20:45:18 46° 210° (SSW) 1,426 - -43.8°
Drops below altitude 10° 20:51:57 10° 138° (SE) 2,844 - -45.4°
Sets 20:54:43 0° 132° (SE) 3,762 - -46.1°
